Location: Olsztyn
(53.7767°N, 20.4765°E)
Time: 09:32:04
(UTC+02:00)

Explorer 7 - Pass Details

Date: 21 July 2024
Orbit: 446 x 574 km, 50.3° (Epoch: 18 May)

Event Time Altitude Azimuth Distance (km) Brightness Sun altitude
Exits shadow 00:25:21 13° 122° (ESE) 1,750 9.0 -15.7°
Drops below altitude 10° 00:26:34 10° 107° (ESE) 1,952 9.4 -15.7°
Enters shadow 01:30:42 -56° 248° (WSW) 11,154 13.4 -15.1°
Maximum altitude 02:02:40 37° 159° (SSE) 940 7.6 -13.9°
